EA5DHO-13 Weather Reports


Display with metric or nautical units.
time (UTC)temp
F
wind
direction
speed
MPH
gust
MPH
rain 1hr
in
rain 24hr
in
rain mn
in
humidity
%
barometer
mb
20260509042504 61 41 2.0 6.0 0.00 0.00 0.00 85 1013.5
20260509041501 61 38 2.0 2.0 0.00 0.00 0.00 85 1014.0
20260509040457 61 38 2.0 4.0 0.00 0.00 0.00 85 1013.9
20260509035454 61 0 1.0 6.0 0.00 0.00 0.00 84 1013.8
20260509034452 62 0 1.0 2.0 0.00 0.00 0.00 83 1013.9
20260509033448 61 0 2.0 4.0 0.00 0.00 0.00 83 1013.9
20260509032446 61 17 1.0 4.0 0.00 0.00 0.00 83 1013.9
20260509031441 61 12 1.0 4.0 0.00 0.00 0.00 82 1014.1
20260509030438 61 6 2.0 4.0 0.00 0.00 0.00 82 1013.9
20260509025435 61 8 1.0 6.0 0.00 0.00 0.00 82 1014.0
20260509024431 61 37 1.0 4.0 0.00 0.00 0.00 82 1014.2
20260509023428 61 64 1.0 4.0 0.00 0.00 0.00 82 1014.1
20260509022425 61 23 2.0 4.0 0.00 0.00 0.00 83 1014.2
20260509021423 61 0.0 2.0 0.00 0.00 0.00 83 1014.3
20260509020419 61 0.0 0.0 0.00 0.00 0.00 83 1014.5
20260509015416 61 38 2.0 4.0 0.00 0.00 0.00 83 1014.4
20260509014513 61 68 2.0 4.0 0.00 0.00 0.00 84 1014.5
20260509013531 61 57 1.0 4.0 0.00 0.00 0.00 84 1014.5
20260509012506 60 23 2.0 4.0 0.00 0.00 0.00 85 1014.7
20260509011503 60 43 1.0 2.0 0.00 0.00 0.00 86 1014.9
20260509010500 60 75 2.0 4.0 0.00 0.00 0.00 86 1014.9
20260509005457 61 0.0 0.0 0.00 0.00 0.00 87 1014.9
20260509004453 61 358 2.0 4.0 0.00 0.00 0.00 87 1015.2
20260509003450 61 23 1.0 2.0 0.00 0.00 0.00 87 1015.3
20260509002447 61 7 1.0 2.0 0.00 0.00 0.00 87 1015.5
20260509001443 61 30 2.0 2.0 0.00 0.00 0.00 87 1015.7
20260509000500 61 248 1.0 2.0 0.00 0.00 0.00 87 1015.7
20260508235438 61 33 1.0 2.0 0.00 0.00 0.00 87 1015.7
20260508234515 61 0.0 0.0 0.00 0.00 0.00 87 1015.8
20260508233432 61 0.0 0.0 0.00 0.00 0.00 87 1015.8
20260508232427 61 15 1.0 2.0 0.00 0.00 0.00 87 1015.7
20260508231444 62 58 2.0 4.0 0.00 0.00 0.00 87 1015.8
20260508230421 62 66 1.0 2.0 0.00 0.00 0.00 86 1015.8
20260508225437 62 105 2.0 4.0 0.00 0.00 0.00 86 1015.9
20260508224534 62 45 1.0 2.0 0.00 0.00 0.00 86 1016.1
20260508223511 63 23 1.0 2.0 0.00 0.00 0.00 85 1016.1
20260508222528 63 23 3.0 4.0 0.00 0.00 0.00 84 1016.2
20260508221504 63 45 1.0 2.0 0.00 0.00 0.00 82 1016.2
20260508220521 64 0.0 2.0 0.00 0.00 0.00 81 1016.3
20260508215458 64 0.0 2.0 0.00 0.00 0.00 81 1016.2
20260508214455 64 68 2.0 4.0 0.00 0.00 0.00 81 1016.2
20260508213512 64 68 1.0 2.0 0.00 0.00 0.00 81 1016.3
20260508212529 64 68 4.0 6.0 0.00 0.00 0.00 82 1016.3
20260508211445 64 81 3.0 4.0 0.00 0.00 0.00 82 1016.3
20260508210442 64 104 3.0 4.0 0.00 0.00 0.00 82 1016.2
20260508205438 64 82 4.0 8.0 0.00 0.00 0.00 82 1016.2
20260508204435 64 75 4.0 7.0 0.00 0.00 0.00 81 1016.2
20260508203432 64 90 4.0 7.0 0.00 0.00 0.00 81 1016.0
20260508202429 64 68 4.0 7.0 0.00 0.00 0.00 81 1016.0
20260508201426 64 68 6.0 9.0 0.00 0.00 0.00 80 1015.9
20260508200422 64 57 4.0 7.0 0.00 0.00 0.00 81 1016.0
20260508195419 64 90 6.0 11.0 0.00 0.00 0.00 81 1015.8
20260508194417 64 68 6.0 11.0 0.00 0.00 0.00 81 1015.8
20260508193554 65 113 3.0 6.0 0.00 0.00 0.00 82 1015.7
20260508192509 65 97 4.0 7.0 0.00 0.00 0.00 81 1015.6
20260508191527 65 90 3.0 8.0 0.00 0.01 0.00 81 1015.4
20260508190503 65 90 4.0 6.0 0.00 0.05 0.00 81 1015.4
20260508185500 64 68 8.0 14.0 0.00 0.06 0.00 80 1015.3
20260508184457 65 45 8.0 13.0 0.00 0.07 0.00 81 1015.1
20260508183454 65 59 6.0 11.0 0.00 0.12 0.00 80 1015.0
20260508182449 65 68 6.0 9.0 0.00 0.12 0.00 80 1014.9
20260508181446 65 53 5.0 9.0 0.00 0.17 0.00 80 1014.9
20260508180443 66 113 4.0 8.0 0.00 0.24 0.00 79 1014.9
20260508175440 66 73 3.0 7.0 0.00 0.33 0.00 78 1015.0
20260508174438 66 55 5.0 9.0 0.00 0.70 0.00 76 1014.9
20260508173434 66 74 6.0 13.0 0.00 0.91 0.00 75 1014.8
20260508172432 67 58 5.0 9.0 0.00 0.91 0.00 74 1014.7
20260508171427 67 90 6.0 11.0 0.00 0.91 0.00 73 1014.6
20260508170444 67 74 8.0 14.0 0.00 0.91 0.00 71 1014.6
20260508165422 66 81 8.0 11.0 0.00 0.91 0.00 71 1014.6
20260508164418 66 90 9.0 13.0 0.00 0.91 0.00 72 1014.6
20260508163515 67 68 5.0 11.0 0.00 0.91 0.00 70 1014.7
20260508162511 66 53 9.0 14.0 0.00 0.91 0.00 71 1014.5
20260508161510 67 58 5.0 9.0 0.00 0.91 0.00 70 1014.6
20260508160505 66 68 10.0 15.0 0.00 0.91 0.00 72 1014.4
20260508155502 67 61 6.0 13.0 0.00 0.91 0.00 72 1014.3
20260508154459 67 68 6.0 14.0 0.00 0.91 0.00 72 1014.2
20260508153455 67 61 4.0 8.0 0.00 0.91 0.00 76 1014.1
20260508152512 66 51 11.0 15.0 0.00 0.91 0.00 74 1014.0
20260508151449 66 68 10.0 15.0 0.00 0.91 0.00 75 1014.1
20260508150446 66 81 12.0 17.0 0.00 0.91 0.00 77 1014.0
20260508145442 67 64 7.0 15.0 0.00 0.91 0.00 72 1014.2
20260508144439 67 75 12.0 16.0 0.00 0.91 0.00 70 1014.5
20260508143436 67 53 7.0 13.0 0.00 0.91 0.00 69 1014.7
20260508142434 68 83 9.0 14.0 0.00 0.91 0.00 65 1014.8
20260508141451 69 55 3.0 7.0 0.00 0.91 0.00 64 1014.9
20260508140427 69 75 2.0 6.0 0.00 0.91 0.00 68 1015.0
20260508135423 69 41 3.0 6.0 0.00 0.91 0.00 69 1015.2
20260508134420 68 45 1.0 2.0 0.00 0.91 0.00 72 1015.2
20260508133417 67 13 4.0 8.0 0.00 0.91 0.00 70 1015.0
20260508132514 66 45 2.0 4.0 0.00 0.91 0.00 74 1015.5
20260508131510 66 39 3.0 7.0 0.00 0.91 0.00 72 1015.6
20260508130508 66 38 2.0 4.0 0.00 0.91 0.00 71 1015.7
20260508125545 66 68 5.0 7.0 0.00 0.91 0.00 72 1015.8
20260508124500 65 75 1.0 2.0 0.00 0.91 0.00 71 1015.8
20260508123517 65 90 2.0 4.0 0.00 0.91 0.00 73 1016.0
20260508122514 64 68 2.0 6.0 0.00 0.91 0.00 76 1016.0
20260508121450 64 90 1.0 2.0 0.00 0.91 0.00 77 1016.1
20260508120448 64 69 1.0 2.0 0.00 0.91 0.00 77 1016.1
20260508115445 65 0.0 0.0 0.00 0.91 0.00 77 1016.0
20260508114442 64 90 1.0 4.0 0.00 0.91 0.00 77 1016.0
20260508113438 64 14 1.0 4.0 0.00 0.91 0.00 77 1016.0
20260508112434 64 45 1.0 2.0 0.00 0.91 0.00 76 1015.9
20260508111451 64 45 1.0 4.0 0.00 0.91 0.00 76 1015.8
20260508110428 64 58 2.0 4.0 0.00 0.91 0.00 75 1015.8
20260508105425 64 0.0 2.0 0.00 0.91 0.00 77 1015.9
20260508104443 63 63 3.0 4.0 0.00 0.91 0.00 77 1016.0
20260508103418 63 52 2.0 2.0 0.00 0.91 0.00 78 1016.1
20260508102415 64 62 3.0 6.0 0.00 0.91 0.00 77 1016.2
20260508101512 64 45 1.0 2.0 0.00 0.91 0.00 75 1016.4
20260508100509 64 315 1.0 2.0 0.00 0.91 0.00 76 1016.2
20260508095525 63 23 1.0 4.0 0.00 0.91 0.00 75 1016.0
20260508094502 64 17 2.0 4.0 0.00 0.91 0.00 74 1015.7
20260508093459 65 113 3.0 4.0 0.00 0.91 0.00 72 1015.9
20260508092455 64 68 2.0 2.0 0.00 0.91 0.00 71 1015.9
20260508091452 64 293 0.0 2.0 0.00 0.91 0.00 71 1016.0
20260508090449 63 0.0 2.0 0.00 0.91 0.00 73 1015.9
20260508085446 63 263 1.0 2.0 0.00 0.91 0.00 73 1016.1
20260508084443 62 253 3.0 4.0 0.00 0.91 0.00 74 1016.0
20260508083440 62 270 0.0 2.0 0.00 0.91 0.00 73 1015.6
20260508082519 61 0.0 0.0 0.00 0.91 0.00 77 1015.3
20260508081454 60 270 2.0 4.0 0.00 0.91 0.00 77 1015.4
20260508080430 59 308 1.0 2.0 0.00 0.91 0.00 79 1015.4
20260508075428 58 289 4.0 6.0 0.00 0.91 0.00 79 1015.6
20260508074443 58 255 2.0 4.0 0.00 0.91 0.00 81 1015.6
20260508073420 57 315 3.0 4.0 0.00 0.91 0.00 83 1015.5
20260508072417 57 255 4.0 6.0 0.00 0.91 0.00 84 1015.7
20260508071515 57 293 1.0 2.0 0.00 0.91 0.00 85 1015.7
20260508070512 56 266 3.0 4.0 0.00 0.91 0.00 86 1015.5
20260508065507 55 277 4.0 7.0 0.00 0.91 0.00 86 1015.6
20260508064504 55 249 3.0 6.0 0.00 0.91 0.00 86 1015.5
20260508063501 55 225 3.0 4.0 0.00 0.91 0.00 86 1015.4
20260508062458 55 277 4.0 6.0 0.00 0.91 0.00 86 1015.2
20260508061536 55 255 4.0 6.0 0.00 0.91 0.00 86 1015.0
20260508060451 54 248 4.0 4.0 0.00 0.91 0.00 86 1015.0
20260508055448 54 256 3.0 6.0 0.00 0.91 0.00 87 1014.9
20260508054446 55 287 2.0 2.0 0.00 0.91 0.00 87 1014.8
20260508053442 54 270 3.0 4.0 0.00 0.91 0.00 88 1014.5
20260508052438 53 283 3.0 6.0 0.00 0.91 0.00 88 1014.6
20260508051435 53 276 3.0 4.0 0.00 0.91 0.00 89 1014.4
20260508050432 53 255 3.0 6.0 0.00 0.91 0.00 89 1014.1
20260508045429 53 246 4.0 6.0 0.00 0.91 0.00 89 1014.2
20260508044425 53 248 5.0 8.0 0.00 0.91 0.00 89 1014.2
20260508043424 53 255 3.0 4.0 0.00 0.91 0.00 89 1014.0